This is the latest recevied weather packets stored in our database for station/object KB4KY. If no packets are shown the sender has not sent any weather packets the latest 10 day(s).
| Time | Temp. | Humidity | Pressure | Rain* | Wind** | Luminosity | Snow |
|---|---|---|---|---|---|---|---|
| 1778024269 | 19.44° C | 76% | 1005.9 hPa | 0.76 mm | - | - | - |
| 1778023668 | 20.56° C | 65% | 1006 hPa | 0 mm | - | - | - |
| 1778023109 | 21.11° C | 63% | 1005.7 hPa | 0 mm | - | - | - |
| 1778023066 | 21.11° C | 63% | 1005.7 hPa | 0 mm | - | - | - |
| 1778022766 | 21.11° C | 63% | 1005.7 hPa | 0 mm | - | - | - |
| 1778022466 | 21.11° C | 63% | 1006 hPa | 0 mm | - | - | - |
| 1778022176 | 21.11° C | 63% | 1006.1 hPa | 0 mm | - | - | - |
| 1778021866 | 21.11° C | 61% | 1005.9 hPa | 0 mm | - | - | - |
| 1778021567 | 21.11° C | 59% | 1005.8 hPa | 0 mm | - | - | - |
| 1778021265 | 21.67° C | 61% | 1006.2 hPa | 0 mm | - | - | - |
| 1778021140 | 21.67° C | 56% | 1006 hPa | 0 mm | - | - | - |
| 1778020964 | 21.67° C | 59% | 1006.1 hPa | 0 mm | - | - | - |
| 1778020673 | 21.67° C | 58% | 1006.1 hPa | 0 mm | - | - | - |
| 1778020363 | 21.67° C | 56% | 1006.1 hPa | 0 mm | - | - | - |
| 1778020069 | 21.67° C | 55% | 1006 hPa | 0 mm | - | - | - |
| 1778019768 | 21.67° C | 56% | 1006 hPa | 0 mm | - | - | - |
| 1778019504 | 21.67° C | 58% | 1006.1 hPa | 0 mm | - | - | - |
| 1778019473 | 21.67° C | 58% | 1006.1 hPa | 0 mm | - | - | - |
| 1778019162 | 21.67° C | 59% | 1006.1 hPa | 0 mm | - | - | - |
| 1778018866 | 21.11° C | 59% | 1006 hPa | 0 mm | - | - | - |
| 1778018562 | 21.67° C | 57% | 1005.9 hPa | 0 mm | - | - | - |
| 1778018265 | 21.67° C | 59% | 1006.1 hPa | 0 mm | - | - | - |
| 1778017961 | 21.67° C | 59% | 1006.2 hPa | 0 mm | - | - | - |
| 1778017661 | 21.67° C | 60% | 1006.3 hPa | 0 mm | - | - | - |
| 1778017363 | 21.67° C | 57% | 1006.4 hPa | 0 mm | - | - | - |
* Rain latest hour (hover to see other rain measurements)
** Current wind speed in m/s (hover to see current wind gust speed)